Sharm El Sheikh, Egypt

2:02 AM EET on December 18, 2017 (GMT +0200)
Sharm El Sheikh

Weather History for HESH - February, 2013

Change the Weather History Date:

Tuesday, February 19, 2013

  Actual Average Record
Temperature  
Mean Temperature 68 °F -  
Max Temperature 78 °F 76 °F - ()
Min Temperature 59 °F 59 °F - ()
Cooling Degree Days 4    
Growing Degree Days 18 (Base 50)    
Moisture  
Dew Point 38 °F    
Average Humidity 34    
Maximum Humidity 46    
Minimum Humidity 25    
Precipitation  
Precipitation 0.00 in 0.00 in - ()
Sea Level Pressure  
Sea Level Pressure 29.96 in    
Wind  
Wind Speed 13 mph ()    
Max Wind Speed 18 mph    
Max Gust Speed -    
T = Trace of Precipitation, MM = Missing Value Source: Averaged Metar Reports

Daily Weather History Graph

Daily Weather History Graph

Search for Another Location

Airport or City:

Trip Planner

Search our weather history database for the weather conditions in past years. The results will help you decide how hot, cold, wet, or windy it might be!

Date:

Astronomy

Feb. 19, 2013 Rise Set
Actual Time 6:16 AM EET 5:36 PM EET
Civil Twilight 5:52 AM EET 6:00 PM EET
Nautical Twilight 5:25 AM EET 6:27 PM EET
Astronomical Twilight 4:58 AM EET 6:54 PM EET
Moon 12:06 PM EET (2/19) 1:16 AM EET (2/19)
Length of Visible Light 12h 07m
Length of Day
11h 19m
Waxing Gibbous, 64% of the Moon is Illuminated
Feb 19
Waxing Gibbous
Feb 25
Full
Mar 4
Last Quarter
Mar 11
New
Mar 19
First Quarter

Hourly Weather History & Observations

Time (EET) Temp. Dew Point Humidity Pressure Visibility Wind Dir Wind Speed Gust Speed Precip Events Conditions
12:00 AM 64.4 °F 33.8 °F 32% 29.95 in - North 16.1 mph - N/A   Clear
1:00 AM 62.6 °F 35.6 °F 37% 29.95 in - North 18.4 mph - N/A   Clear
2:00 AM 62.6 °F 33.8 °F 34% 29.92 in - North 17.3 mph - N/A   Clear
4:00 AM 60.8 °F 33.8 °F 36% 29.92 in - North 13.8 mph - N/A   Clear
5:00 AM 60.8 °F 33.8 °F 36% 29.95 in - North 13.8 mph - N/A   Clear
6:00 AM 59.0 °F 35.6 °F 42% 29.95 in - North 12.7 mph - N/A   Clear
7:00 AM 60.8 °F 37.4 °F 42% 29.98 in - North 15.0 mph - N/A   Clear
8:00 AM 64.4 °F 35.6 °F 34% 29.98 in - North 18.4 mph - N/A   Clear
9:00 AM 68.0 °F 33.8 °F 28% 30.01 in - North 17.3 mph - N/A   Clear
10:00 AM 69.8 °F 33.8 °F 27% 30.01 in - NNE 15.0 mph - N/A   Clear
11:00 AM 73.4 °F 37.4 °F 27% 29.98 in - NNE 15.0 mph - N/A   Clear
12:00 PM 75.2 °F 37.4 °F 25% 29.95 in - NNE 12.7 mph - N/A   Clear
1:00 PM 77.0 °F 39.2 °F 26% 29.95 in - NNE 12.7 mph - N/A   Clear
2:00 PM 78.8 °F 41.0 °F 26% 29.95 in - NE 9.2 mph - N/A   Clear
3:00 PM 77.0 °F 41.0 °F 28% 29.95 in - NE 10.4 mph - N/A   Clear
4:00 PM 75.2 °F 42.8 °F 31% 29.95 in - NNE 10.4 mph - N/A   Clear
5:00 PM 73.4 °F 42.8 °F 33% 29.95 in - North 12.7 mph - N/A   Clear
6:00 PM 68.0 °F 44.6 °F 43% 29.95 in - North 11.5 mph - N/A   Clear
7:00 PM 68.0 °F 44.6 °F 43% 29.98 in - North 11.5 mph - N/A   Clear
8:00 PM 66.2 °F 44.6 °F 46% 29.98 in - North 13.8 mph - N/A   Clear
9:00 PM 66.2 °F 42.8 °F 43% 29.98 in - North 12.7 mph - N/A   Clear
10:00 PM 66.2 °F 35.6 °F 32% 29.98 in - North 12.7 mph - N/A   Clear
11:00 PM 64.4 °F 35.6 °F 34% 30.01 in - North 11.5 mph - N/A   Clear